Regional Weather Roundup
Issued by NWS

Home | Current Version | Previous Version | Text Only | Print | Product List | Glossary Off
Versions: 1 2 3 4 5 6 7 8 9 10 11 12 13 14 15 16 17 18 19 20 21 22 23 24 25 26 27 28 29 30 31 32 33 34 35 36 37 38 39 40 41 42 43 44 45 46 47 48 49 50

000
ASUS45 KBOI 290310
RWRID

IDAHO REGIONAL WEATHER ROUNDUP
NATIONAL WEATHER SERVICE BOISE ID
900 PM MDT SAT MAY 28 2016

NOTE: "FAIR" INDICATES FEW OR NO CLOUDS BELOW 12000 FEET
WITH NO SIGNIFICANT WEATHER AND/OR OBSTRUCTIONS TO VISIBILITY

IDZ012-014-290400-
SOUTHWEST IDAHO


CITY           SKY/WX    TMP DP  RH WIND       PRES   REMARKS
BOISE          CLEAR     67  29  24 NW7       30.00R
CALDWELL       CLEAR     64  36  35 CALM      30.00R
MOUNTAIN HOME  CLEAR     70  37  29 NW9       30.00R
$$

IDZ016-017-290400-
SOUTHCENTRAL IDAHO


CITY           SKY/WX    TMP DP  RH WIND       PRES   REMARKS
BURLEY         CLEAR     61  29  29 W6        30.04R
JEROME         CLEAR     60  29  30 SW5       30.05R
TWIN FALLS     CLEAR     52  40  63 CALM      30.05R
$$

IDZ019>023-290400-
SOUTHEAST IDAHO


CITY           SKY/WX    TMP DP  RH WIND       PRES   REMARKS
IDAHO FALLS    CLEAR     59  30  33 S8        30.08R
POCATELLO      CLOUDY    56  34  43 W8        30.07R
REXBURG        CLEAR     56  30  37 S8        30.08R
$$

IDZ006-010-011-018-031-032-290400-
CENTRAL IDAHO MOUNTAINS


CITY           SKY/WX    TMP DP  RH WIND       PRES   REMARKS
MCCALL         CLEAR     56  29  35 W3        30.06R
HAILEY         CLEAR     54  36  50 SE6       30.09R
STANLEY          N/A     51  25  36 CALM      30.11R
SALMON         CLEAR     57  34  41 S5        29.98R
CHALLIS        CLEAR     60  24  25 W7        30.00R
$$

IDZ002-004-006-007-026-290400-
NORTHERN IDAHO


CITY           SKY/WX    TMP DP  RH WIND       PRES   REMARKS
LEWISTON       PTCLDY    68  39  34 E5        29.99R
LOWELL           N/A     57  46  66 N3        30.00R
COEUR D`ALENE  MOCLDY    59  39  47 SE3       30.00S
MULLAN PASS    CLEAR     41  31  67 VRB3      30.09R
$$



USA.gov is the U.S. government's official web portal to all federal, state and local government web resources and services.